Temp
19 20 20 21 21 22 22 23 23 24 24 24 24 24 24 24 24 25 26 27 27 27 27 28 28 28 27 26 28 28 23 24 27 28 29 32 31 29 28 26 26 26 24 23 22
19 20 20 21 21 22 22 23 23 24 24 24 24 24 24 24 25 26 27 27 27 27 27 28 28 27 26 28 29 26 22 27 28 30 31 32 31 29 27 26 26 25 24 22 21
19 20 20 21 21 22 23 23 23 23 24 24 24 24 24 25 25 27 27 27 27 27 27 28 27 26 27 29 29 27 26 28 31 33 33 32 32 30 27 26 25 24 24 23 22
20 20 20 21 21 22 22 23 23 23 24 24 25 24 24 25 25 27 27 27 27 27 27 28 28 28 27 26 30 28 30 32 32 33 33 31 32 31 29 28 28 27 24 24 22
20 20 21 21 21 22 22 23 23 23 24 25 25 25 25 25 27 27 27 27 27 27 28 28 27 27 26 28 29 29 31 33 32 33 33 33 31 32 30 29 27 25 24 24 23
20 20 21 21 22 22 23 23 24 24 24 24 25 25 25 24 27 27 27 27 27 27 28 28 29 29 28 28 28 30 30 32 32 33 33 30 31 32 28 27 25 25 24 24 24
20 21 21 21 22 22 23 23 23 23 24 24 24 24 25 28 27 28 28 28 28 28 28 29 29 28 30 27 30 30 29 28 30 32 31 32 30 28 27 27 26 25 25 24 24
20 21 22 22 22 22 23 23 23 23 23 24 24 24 26 27 27 28 28 28 28 28 28 29 29 29 29 30 29 27 26 27 29 29 31 30 28 28 29 28 26 26 25 25 24
21 21 22 22 23 23 23 23 23 23 23 23 24 23 27 27 27 28 28 28 29 29 29 29 29 29 29 25 23 24 25 26 29 30 30 29 27 28 29 29 26 26 25 25 25
21 22 22 23 23 24 24 24 24 24 23 24 23 23 27 28 28 28 28 28 28 29 28 29 29 24 22 22 23 25 26 28 29 31 29 27 26 26 27 27 26 26 25 24 24
21 22 22 23 23 24 24 24 24 23 24 26 26 27 28 29 28 28 29 29 29 29 26 28 24 23 24 23 25 26 29 29 30 31 29 26 26 26 26 25 24 25 25 24 23
21 22 23 23 24 24 24 25 25 25 24 26 27 26 28 28 29 29 29 29 29 26 27 24 24 26 26 27 28 30 28 27 29 30 29 26 27 25 26 25 25 25 25 25 24
20 21 22 24 24 24 24 25 25 25 23 25 28 29 29 29 30 30 29 29 28 27 26 24 27 29 28 31 29 27 27 28 29 28 28 28 26 26 26 25 25 25 26 25 25
20 21 22 24 24 24 24 25 25 25 18 23 26 29 30 30 29 30 30 30 28 26 26 25 28 30 31 30 26 27 28 28 28 25 25 27 23 25 23 23 24 24 24 24 25
20 20 21 22 23 24 24 25 25 25 22 28 28 31 30 30 30 30 30 30 28 27 29 27 30 30 29 30 29 28 29 29 28 26 24 25 23 22 23 22 23 23 24 24 25
20 20 22 22 23 24 24 25 25 20 23 28 30 28 27 29 30 30 30 30 30 28 28 27 31 30 30 30 30 31 27 24 21 20 22 24 24 23 23 23 23 23 23 24 24
20 20 21 22 23 23 23 24 19 20 27 28 28 27 26 27 28 29 28 28 25 27 25 26 28 30 30 29 27 25 21 20 22 20 22 23 22 22 24 25 25 23 23 24 24
21 21 22 24 23 23 23 19 22 24 27 29 27 26 26 26 27 28 26 26 25 25 23 24 25 28 29 28 27 27 22 19 24 21 22 22 22 23 24 25 26 25 25 24 24
21 22 23 24 23 22 22 18 20 23 27 28 27 26 26 27 28 27 25 25 26 24 25 23 27 29 29 29 27 27 24 23 20 20 21 21 24 25 24 24 24 24 24 24 24
20 22 25 23 23 22 17 16 21 25 27 27 27 27 27 28 28 27 25 26 28 26 25 25 25 28 29 29 29 26 25 23 18 23 23 21 23 21 23 23 22 22 23 23 22
19 21 24 23 23 21 16 16 22 27 27 28 26 26 26 26 26 26 26 28 29 27 26 23 23 25 27 26 25 24 24 21 19 18 19 19 21 21 21 21 21 21 22 22 22
17 14 24 22 20 17 16 21 25 25 26 27 28 27 26 26 26 27 28 27 28 27 27 24 19 22 25 26 27 24 23 20 19 22 18 18 20 25 22 22 21 20 21 22 22
13 16 23 23 18 16 17 22 24 24 24 26 27 26 27 26 27 27 27 27 28 24 25 25 20 20 22 22 23 24 25 23 17 17 20 19 19 22 22 20 21 21 22 22 21
11 10 20 22 20 19 19 20 22 25 25 27 26 26 23 24 24 26 27 27 27 26 26 24 18 19 19 22 22 25 24 25 20 18 19 18 21 23 20 18 19 21 22 21 21
12 11 14 12 15 14 18 20 22 23 25 27 26 25 24 24 22 23 22 25 25 26 24 20 21 22 21 23 24 24 24 24 23 22 21 21 20 19 17 17 20 21 21 21 20
11 11 12 13 15 16 17 20 22 23 23 23 24 25 19 19 20 21 21 22 23 24 23 18 19 22 22 23 22 23 23 23 23 23 21 20 20 17 20 21 20 21 21 19 18
10 11 11 13 12 14 15 17 19 20 23 23 22 19 19 21 22 23 23 22 22 22 19 19 17 16 19 20 21 20 22 23 22 21 21 20 19 18 17 18 19 20 20 18 18
Height
1528 1525 1521 1517 1513 1509 1507 1505 1503 1502 1501 1501 1501 1501 1501 1502 1502 1503 1502 1505 1506 1507 1509 1510 1511 1512 1514 1513 1515 1517 1526 1527 1515 1510 1503 1486 1485 1496 1497 1499 1504 1504 1505 1509 1520
1528 1524 1520 1516 1512 1508 1506 1503 1501 1500 1499 1499 1499 1499 1499 1500 1500 1498 1500 1500 1503 1505 1507 1507 1509 1511 1512 1510 1511 1512 1523 1512 1498 1492 1490 1486 1488 1493 1501 1504 1507 1506 1514 1519 1521
1527 1524 1520 1516 1511 1507 1505 1502 1500 1499 1497 1496 1496 1497 1497 1498 1498 1497 1496 1498 1501 1503 1505 1505 1507 1508 1507 1505 1505 1504 1510 1497 1492 1489 1488 1489 1491 1493 1499 1507 1501 1504 1513 1519 1521
1527 1523 1519 1515 1511 1507 1504 1501 1499 1497 1496 1495 1495 1495 1496 1497 1501 1496 1496 1497 1499 1502 1504 1504 1506 1506 1505 1505 1501 1506 1493 1490 1491 1489 1489 1491 1492 1495 1494 1496 1498 1500 1505 1513 1518
1526 1522 1518 1514 1510 1506 1503 1500 1498 1496 1494 1493 1493 1494 1495 1496 1494 1494 1495 1496 1498 1500 1503 1504 1505 1506 1507 1502 1500 1497 1491 1490 1490 1489 1490 1489 1490 1491 1493 1496 1501 1506 1510 1514 1518
1524 1521 1517 1513 1510 1506 1502 1498 1497 1496 1494 1492 1492 1493 1494 1496 1494 1494 1494 1495 1497 1500 1502 1503 1504 1505 1503 1501 1501 1495 1493 1489 1488 1488 1489 1492 1491 1490 1499 1500 1505 1508 1513 1518 1520
1523 1519 1516 1512 1509 1505 1501 1497 1496 1495 1494 1492 1492 1493 1494 1494 1493 1494 1494 1495 1497 1499 1501 1502 1503 1505 1502 1499 1497 1495 1495 1490 1486 1487 1489 1490 1496 1499 1499 1501 1505 1510 1515 1519 1522
1521 1517 1514 1511 1507 1504 1501 1498 1496 1495 1495 1493 1493 1494 1492 1492 1493 1495 1495 1496 1498 1500 1501 1502 1502 1500 1501 1500 1497 1498 1498 1508 1485 1485 1489 1489 1512 1500 1499 1501 1505 1511 1518 1521 1522
1519 1515 1512 1509 1506 1503 1500 1498 1496 1495 1495 1494 1494 1494 1491 1491 1491 1494 1495 1496 1497 1499 1499 1499 1501 1499 1499 1505 1513 1505 1515 1507 1494 1483 1487 1490 1509 1500 1498 1498 1505 1510 1518 1521 1522
1517 1513 1510 1508 1504 1502 1500 1496 1495 1495 1495 1494 1494 1497 1490 1488 1490 1492 1494 1495 1496 1497 1499 1499 1499 1501 1503 1513 1533 1515 1508 1497 1496 1485 1485 1494 1502 1500 1498 1498 1504 1507 1513 1517 1517
1515 1511 1508 1506 1503 1501 1500 1497 1499 1497 1493 1489 1489 1488 1487 1488 1490 1491 1493 1494 1495 1496 1500 1497 1507 1513 1501 1500 1496 1499 1495 1498 1488 1480 1489 1495 1498 1498 1500 1501 1505 1508 1512 1516 1518
1512 1508 1505 1503 1502 1500 1500 1499 1498 1499 1492 1485 1483 1485 1485 1487 1488 1489 1492 1494 1493 1497 1496 1504 1510 1491 1490 1489 1490 1491 1498 1502 1489 1485 1488 1498 1498 1499 1499 1501 1502 1504 1509 1513 1517
1510 1506 1503 1501 1499 1500 1499 1499 1499 1497 1494 1480 1478 1480 1482 1485 1484 1486 1490 1490 1492 1496 1496 1508 1492 1485 1488 1485 1492 1498 1503 1504 1501 1493 1488 1491 1507 1506 1504 1504 1506 1506 1508 1513 1515
1507 1504 1501 1498 1501 1498 1498 1497 1496 1496 1506 1484 1475 1476 1479 1482 1482 1482 1485 1488 1490 1494 1491 1496 1482 1482 1484 1488 1493 1506 1491 1492 1496 1510 1523 1496 1539 1509 1505 1510 1509 1508 1509 1512 1515
1504 1501 1499 1498 1497 1496 1497 1495 1493 1494 1523 1471 1472 1472 1474 1479 1478 1478 1481 1486 1488 1488 1491 1497 1484 1484 1490 1489 1485 1497 1486 1490 1493 1503 1511 1508 1526 1517 1509 1517 1510 1509 1509 1513 1514
1501 1498 1496 1495 1494 1495 1494 1493 1494 1508 1516 1474 1466 1469 1474 1475 1475 1475 1480 1483 1483 1485 1484 1487 1479 1480 1483 1482 1483 1483 1492 1499 1506 1518 1540 1509 1518 1523 1510 1502 1507 1509 1509 1511 1513
1496 1495 1491 1492 1493 1492 1492 1492 1509 1519 1470 1473 1470 1467 1473 1476 1477 1479 1481 1485 1494 1502 1504 1489 1484 1478 1477 1486 1485 1493 1516 1548 1544 1550 1546 1508 1521 1508 1492 1489 1491 1501 1507 1510 1513
1491 1489 1486 1487 1489 1490 1491 1494 1511 1484 1473 1459 1464 1469 1478 1472 1475 1476 1482 1490 1483 1488 1505 1511 1514 1482 1475 1484 1497 1496 1513 1546 1549 1558 1542 1511 1527 1503 1485 1493 1497 1502 1504 1509 1513
1486 1483 1481 1483 1484 1486 1490 1508 1497 1482 1468 1467 1463 1478 1479 1471 1470 1476 1482 1484 1475 1478 1502 1510 1500 1476 1475 1478 1485 1499 1515 1506 1532 1535 1541 1530 1511 1497 1492 1498 1499 1502 1505 1509 1512
1483 1480 1476 1480 1482 1485 1491 1500 1483 1469 1466 1464 1476 1471 1480 1474 1477 1480 1481 1468 1469 1466 1468 1486 1506 1483 1481 1480 1483 1492 1493 1523 1537 1545 1548 1539 1523 1528 1508 1502 1501 1503 1505 1509 1512
1483 1479 1477 1478 1482 1485 1498 1493 1477 1467 1468 1465 1469 1472 1474 1477 1475 1476 1473 1463 1460 1463 1464 1476 1492 1495 1483 1491 1498 1501 1506 1514 1525 1537 1554 1559 1536 1504 1502 1499 1502 1503 1505 1507 1510
1483 1483 1476 1478 1482 1482 1489 1479 1472 1467 1466 1466 1461 1463 1468 1469 1473 1472 1470 1463 1457 1456 1470 1472 1494 1508 1495 1483 1482 1489 1497 1508 1535 1533 1537 1542 1537 1494 1495 1495 1496 1502 1507 1509 1511
1487 1481 1476 1476 1486 1486 1478 1476 1474 1470 1465 1463 1463 1464 1462 1467 1476 1469 1465 1462 1458 1462 1469 1469 1498 1519 1510 1499 1489 1495 1493 1499 1513 1521 1529 1543 1535 1494 1498 1498 1501 1502 1505 1507 1509
1492 1489 1476 1474 1475 1478 1480 1477 1474 1464 1458 1456 1459 1461 1467 1471 1469 1470 1467 1463 1463 1463 1465 1467 1495 1506 1523 1509 1500 1500 1499 1496 1511 1529 1525 1528 1514 1502 1502 1500 1501 1503 1504 1505 1507
1494 1491 1491 1490 1480 1481 1479 1475 1473 1468 1459 1455 1459 1460 1465 1474 1476 1477 1472 1468 1466 1466 1466 1472 1494 1490 1495 1493 1493 1495 1495 1497 1503 1506 1518 1511 1511 1504 1501 1499 1500 1501 1502 1504 1506
1496 1495 1492 1488 1484 1480 1476 1474 1472 1467 1465 1463 1463 1459 1465 1476 1477 1481 1478 1475 1472 1469 1470 1473 1495 1487 1495 1492 1494 1497 1493 1493 1495 1496 1501 1503 1502 1493 1496 1498 1500 1501 1501 1503 1504
1497 1497 1496 1489 1486 1484 1485 1482 1474 1468 1465 1464 1462 1467 1471 1471 1470 1470 1470 1470 1470 1471 1478 1481 1492 1505 1510 1499 1498 1510 1494 1492 1493 1492 1494 1501 1492 1491 1495 1495 1496 1497 1499 1501 1502
Wind_Speed
19 21 22 22 22 14 12 12 11 9 9 8 7 7 6 7 8 11 14 9 12 12 6 5 5 7 8 10 16 9 1 5 10 12 7 10 8 18 13 27 8 4 30 39 39
19 21 22 23 23 15 14 14 10 9 9 8 7 6 6 6 8 12 7 11 13 8 9 7 7 6 11 7 5 7 3 6 6 4 3 8 9 22 10 11 8 26 30 38 44
20 21 22 23 24 17 14 14 9 8 7 7 7 6 6 5 4 4 2 11 14 11 8 10 9 11 7 8 5 5 7 8 3 8 5 4 13 21 22 8 30 38 43 39 43
19 20 22 23 24 19 14 14 10 8 7 6 5 6 5 2 3 4 2 9 11 9 10 11 6 3 3 4 11 4 11 4 2 6 4 3 7 10 21 17 27 39 52 47 39
19 20 21 22 23 19 16 15 9 8 7 5 4 5 3 2 2 2 3 6 8 11 14 12 7 5 3 5 12 4 3 2 3 5 7 19 7 6 13 25 30 41 44 45 38
19 20 20 21 22 20 17 16 7 6 6 3 2 5 3 2 1 4 1 5 10 13 17 12 3 6 13 7 3 11 11 5 2 5 7 9 3 22 17 31 35 39 38 39 40
19 19 20 21 21 19 17 12 4 4 5 3 2 5 5 3 1 3 2 4 8 14 17 11 8 14 12 10 12 16 6 8 8 7 4 18 4 6 30 35 35 34 33 37 39
20 20 19 20 20 17 14 10 5 3 3 1 2 2 4 1 5 4 12 13 10 4 2 3 9 12 7 9 11 5 4 2 8 8 5 10 3 6 34 32 26 28 29 30 33
21 20 19 18 18 14 12 12 5 3 2 1 3 2 3 6 13 5 7 7 7 4 3 6 11 7 7 3 6 4 5 6 6 11 7 4 7 4 28 30 28 33 20 16 23
21 20 18 16 16 11 11 9 3 2 3 3 5 4 7 10 17 9 6 7 10 9 13 11 2 2 3 4 3 5 4 1 6 5 6 6 8 5 23 33 26 28 31 31 21
21 20 18 14 13 7 10 4 4 2 6 8 2 7 3 8 10 11 6 7 9 5 6 2 4 6 10 9 9 7 2 3 3 2 5 8 12 11 15 25 22 27 30 31 32
21 20 18 13 8 4 6 5 8 7 9 14 21 23 15 7 10 16 10 8 2 6 2 5 7 15 8 9 7 4 5 6 3 1 3 7 5 6 13 18 28 30 26 27 31
20 20 18 11 4 2 3 7 9 10 4 13 18 20 13 17 9 16 21 14 3 3 6 7 11 5 9 3 5 4 7 3 1 4 5 5 4 7 2 12 21 27 28 24 25
19 19 18 11 2 4 5 4 4 8 4 7 6 9 13 12 5 19 23 10 3 9 6 7 10 6 1 3 6 4 3 5 5 5 2 4 4 4 8 8 11 21 30 27 22
18 18 15 13 9 5 3 2 2 2 2 3 6 7 13 12 2 8 25 17 7 8 3 7 2 4 6 3 4 3 2 3 2 4 4 2 3 5 8 7 12 17 28 29 23
18 16 16 13 11 4 3 2 5 5 5 3 9 8 8 11 5 18 21 12 3 4 3 7 4 6 6 3 4 0 5 8 6 4 3 3 5 4 12 17 13 18 27 31 27
18 15 18 13 5 2 3 5 4 3 4 5 6 7 7 7 3 7 7 5 4 3 4 7 4 3 4 4 7 7 7 4 5 5 5 6 4 9 13 22 19 20 27 32 28
19 17 15 12 7 8 5 4 3 4 4 4 5 4 9 8 7 10 8 6 5 5 2 3 8 3 3 6 6 3 7 5 1 1 6 6 6 7 7 18 27 32 35 31 23
20 15 14 4 10 11 3 2 7 5 3 7 5 6 4 6 6 7 9 10 9 10 8 5 2 1 6 4 7 3 2 6 6 2 3 3 5 10 13 14 18 21 31 27 20
21 16 8 17 14 11 4 6 4 4 6 5 3 3 0 3 2 3 9 8 8 11 8 8 3 1 2 8 2 6 4 3 4 2 3 4 4 5 5 10 6 13 23 25 25
16 9 7 20 15 4 3 7 5 13 14 2 2 2 2 2 1 4 5 3 5 3 10 8 5 4 5 4 7 4 1 5 5 4 4 0 6 6 9 9 10 12 26 27 21
8 2 15 17 6 2 3 4 4 9 23 7 2 1 3 3 3 3 2 2 6 8 5 1 6 3 6 2 4 6 8 6 5 5 2 5 6 4 8 13 24 21 23 19 15
18 8 8 6 3 3 6 6 7 11 9 5 2 3 3 0 1 1 3 4 7 5 5 2 2 3 7 7 7 5 4 3 4 3 5 5 5 2 5 12 17 24 19 15 13
7 4 6 4 3 3 3 6 5 12 8 5 4 4 6 5 1 3 1 2 6 6 6 7 4 6 6 5 3 1 4 3 5 3 3 6 7 3 3 9 12 18 16 12 10
3 3 6 4 5 5 2 4 5 4 8 3 2 4 5 2 6 5 7 2 3 9 4 5 4 4 4 4 2 3 3 0 1 5 5 8 8 8 8 8 17 18 15 15 13
6 6 9 9 13 6 3 3 3 5 5 7 1 3 9 6 4 1 4 3 5 2 3 4 3 3 0 3 6 3 5 2 3 3 4 7 6 8 17 16 14 14 11 17 14
5 5 3 7 7 4 3 7 9 10 4 10 2 7 9 3 2 2 4 5 1 5 2 3 4 3 3 2 4 5 3 2 4 5 6 7 8 8 7 14 16 12 15 15 9
Wind_Direction
4 3 2 1 360 351 346 335 318 307 296 290 289 286 283 276 265 252 244 226 207 217 212 207 178 172 225 246 229 208 90 239 250 246 247 7 39 143 140 137 171 188 161 161 157
2 2 1 360 359 351 346 341 325 309 292 283 281 285 288 292 283 273 231 208 195 188 210 215 214 279 274 253 221 160 175 245 221 196 49 0 19 130 129 154 114 114 140 152 162
358 359 359 359 358 353 347 346 335 325 307 284 266 271 285 305 307 73 69 186 186 186 196 210 240 286 268 284 232 210 216 223 252 99 57 8 79 141 128 139 148 141 151 156 168
355 356 356 356 357 353 346 344 334 331 317 296 265 251 275 307 147 3 124 165 179 179 189 197 257 268 312 320 281 286 247 44 332 107 107 128 129 134 149 176 162 158 159 162 170
351 352 352 353 355 352 342 339 331 332 329 306 258 231 233 262 279 357 108 155 174 180 177 191 244 270 249 269 314 209 332 15 75 105 97 121 108 101 112 156 159 156 160 167 173
347 348 348 348 352 350 341 334 327 342 345 334 225 191 186 281 3 297 244 166 173 171 169 197 218 283 287 287 335 320 314 312 346 203 143 122 152 89 139 149 150 160 165 171 177
343 344 345 345 347 348 344 348 339 352 1 17 141 172 216 269 126 53 164 119 155 162 179 199 267 279 296 325 338 325 336 339 294 243 128 133 52 95 147 153 155 168 169 174 183
338 339 340 341 342 348 346 350 325 330 356 54 137 191 258 218 192 120 118 116 117 137 229 275 304 297 268 296 318 314 45 11 278 177 184 122 121 157 124 135 162 164 171 180 187
333 334 336 338 337 343 341 337 321 287 301 178 157 278 249 188 197 175 196 152 140 150 237 311 286 304 306 48 346 348 236 183 284 186 138 98 151 211 125 118 108 128 131 165 201
330 330 332 335 333 336 343 341 335 319 283 233 233 299 217 211 219 208 239 252 257 239 252 258 269 22 2 78 254 282 303 120 172 201 98 121 133 185 136 124 120 114 105 93 95
327 326 327 331 330 329 3 3 1 332 283 232 190 251 21 140 164 201 180 220 248 237 184 227 68 241 244 200 223 256 29 43 240 245 105 169 149 172 142 122 120 119 112 106 101
326 324 323 329 320 321 10 33 9 333 299 273 258 265 249 257 175 209 185 215 228 232 115 11 231 247 244 241 202 354 23 339 28 303 115 164 178 153 151 146 140 133 132 127 120
324 323 322 328 275 274 7 34 356 325 286 285 237 240 239 199 187 201 195 211 214 268 232 176 246 269 249 324 54 6 82 61 78 314 9 54 31 139 180 137 142 145 144 142 133
323 322 323 330 233 297 112 15 20 330 46 275 191 227 220 189 256 218 200 189 224 222 238 221 261 185 103 29 113 62 336 31 18 69 238 84 260 246 155 151 152 148 148 142 139
320 318 315 313 294 243 310 309 298 330 9 179 175 187 188 180 202 199 200 206 231 259 34 264 260 170 87 148 114 202 4 0 341 334 36 314 64 271 138 154 165 162 153 151 153
316 316 303 301 287 245 281 263 325 48 260 226 169 156 127 210 250 165 185 207 239 241 238 221 252 153 166 119 100 81 31 14 33 79 354 235 138 257 184 172 170 171 162 158 158
313 307 293 281 245 171 292 315 56 154 305 213 181 139 154 193 211 172 182 196 164 44 325 331 297 268 132 74 20 73 51 354 10 11 228 320 126 230 201 175 164 155 161 163 163
314 303 281 269 236 228 250 63 193 244 254 272 158 117 171 175 230 188 152 197 263 132 100 200 321 185 192 140 157 96 136 144 198 291 272 327 323 297 147 136 146 164 172 167 167
319 307 282 235 175 170 148 109 211 223 277 342 81 140 253 238 174 151 189 197 211 168 170 154 326 86 119 125 123 292 42 180 118 356 27 309 336 29 109 134 150 145 160 162 158
326 319 285 160 155 162 90 233 244 275 341 329 98 114 173 15 142 176 184 210 224 184 155 197 136 296 130 76 26 139 172 34 7 140 259 312 270 193 173 160 136 133 146 143 134
330 323 119 155 172 191 170 235 289 289 325 236 105 45 100 84 142 312 230 317 205 154 144 151 114 269 95 162 188 8 16 69 116 129 156 345 281 214 193 178 154 149 145 143 139
0 338 149 175 154 169 191 217 294 288 314 297 133 181 206 29 354 333 330 348 359 137 99 31 129 144 201 226 222 180 192 135 129 241 185 148 258 233 194 166 150 145 143 139 134
337 289 206 198 184 270 293 291 289 283 267 245 26 23 357 4 351 243 139 40 63 72 147 188 29 64 356 356 4 56 25 95 93 62 188 141 265 85 162 112 143 144 147 142 138
335 345 330 326 23 129 345 280 274 304 264 146 139 77 47 6 360 270 108 23 92 109 114 96 107 144 179 194 176 306 349 13 118 101 195 205 247 256 93 126 143 145 141 136 146
338 303 4 323 333 335 276 287 307 328 345 64 67 168 181 209 349 21 5 15 11 161 109 108 148 137 174 208 220 202 251 22 160 212 162 261 207 179 174 144 134 133 137 146 159
13 358 343 304 305 339 341 310 288 319 8 321 302 304 80 110 139 77 13 69 256 340 62 5 191 114 90 319 348 300 308 352 327 261 237 225 259 170 161 141 141 148 150 163 168
353 313 325 305 339 11 25 318 314 321 357 52 27 91 64 90 36 348 319 275 298 143 88 82 110 82 242 50 31 334 223 297 280 261 215 267 202 174 157 150 152 145 149 159 173